#timestamp,LO_Frequency,Hit,StdDev 
1635548415.2,286047000.4,N
1635548435.1,286047000.2,N
1635548436.0,286047000.2,N
1635548455.8,286046999.8,N
1635548475.6,286046999.8,N
1635548495.5,286047000.2,N
1635548515.3,286047002.1,N
1635548535.2,286046999.7,N
1635548555.9,286047002.0,N
1635548575.7,286047002.8,N
1635548595.6,286047002.0,N
1635548615.4,286047002.0,N
1635548635.3,286047002.0,N
1635548655.1,286047002.1,N
1635548656.0,286047002.1,N
1635548675.8,286047002.5,N
1635548695.7,286047002.6,N
1635548715.5,286047002.3,N
1635548735.3,286047002.6,N
1635548755.2,286047002.5,N
1635548775.0,286047002.0,N
1635548775.9,286047002.0,N
1635548795.8,286046999.9,N
1635548815.6,286047002.4,N
1635548835.4,286047000.1,N
1635548855.3,286047001.6,N
1635548875.1,286047002.4,N
1635548895.8,286047004.4,Y
1635548915.7,286047000.9,P
1635548935.5,286047000.9,P
1635548955.4,286047000.0,N
1635548975.2,286046999.8,N
1635548995.0,286047002.6,Y
1635548995.9,286047002.6,P
1635549015.8,286047000.4,N
1635549035.6,286047000.4,N
1635549055.5,286047002.3,N
1635549075.3,286047000.0,N
1635549095.1,286047000.2,N
1635549115.9,286047000.0,N
1635549135.7,286046999.9,N
1635549155.6,286047002.3,N
1635549175.4,286047002.3,N
1635549195.2,286047000.9,N
1635549215.1,286047000.9,N
1635549216.0,286047000.9,N
1635549235.8,286047001.2,N
1635549255.6,286047000.9,N
1635549275.5,286046998.3,N
1635549295.3,286046998.1,N
1635549315.2,286046998.2,N
1635549335.9,286046998.6,N
1635549355.7,286046999.6,N
1635549375.6,286046996.6,N
1635549395.4,286046998.4,N
1635549415.2,286046998.4,N
1635549435.1,286047001.1,N
1635549436.0,286047001.1,N
1635549455.8,286046999.0,N
1635549475.7,286046999.1,N
1635549495.5,286046999.5,N
1635549515.3,286046996.5,N
1635549535.2,286046998.7,N
1635549555.0,286046999.0,N
1635549555.9,286046999.0,N
1635549575.7,286046998.9,N
1635549595.6,286047000.9,N
1635549615.4,286047000.7,N
1635549635.3,286047002.1,N
1635549655.1,286047011.9,Y
1635549656.0,286047002.7,P
1635549675.8,286047002.1,N
1635549695.7,286047001.9,N
1635549715.5,286047004.0,Y
1635549735.4,286047001.9,P
1635549755.2,286047002.6,P
1635549775.0,286047001.3,P
1635549775.9,286047001.3,N
1635549795.8,286047000.3,N
1635549815.6,286047002.8,Y
1635549835.4,286047001.0,P
1635549855.3,286046999.0,P
1635549875.1,286046999.4,N
1635549895.9,286046998.7,N
1635549915.7,286046998.2,N
1635549935.5,286046998.1,N
1635549955.4,286046996.5,N
1635549975.2,286046996.9,N
1635549995.0,286046999.0,N
1635549995.9,286046999.0,N
1635550015.8,286046999.2,N
1635550035.6,286046999.5,N
1635550055.5,286046999.5,N
1635550075.3,286046997.6,N
1635550095.2,286046997.4,N
1635550115.9,286046998.0,N
1635550135.7,286046997.2,N
1635550155.6,286046996.5,N
1635550175.4,286046997.0,N
1635550195.2,286046997.0,N
1635550215.1,286046997.1,N
1635550216.0,286046997.1,N
1635550235.8,286046997.7,N
1635550255.7,286046996.5,N
1635550275.5,286046997.1,N
1635550295.3,286046997.0,N
1635550315.2,286046997.1,N
1635550335.0,286046996.8,N
1635550335.9,286046996.8,N
1635550355.8,286046997.7,N
1635550375.6,286046996.7,N
1635550395.4,286046999.2,N
1635550415.3,286046999.0,N
1635550435.1,286046999.6,N
1635550455.9,286046999.5,N
1635550475.7,286046996.7,Y
1635550495.5,286047000.9,P
1635550515.4,286047001.2,N
1635550535.2,286047001.1,N
1635550555.1,286047001.1,N
1635550556.0,286047001.1,N
1635550575.8,286047000.0,N
1635550595.6,286047000.0,N
1635550615.5,286047001.2,N
1635550635.3,286046998.4,N
1635550655.1,286046998.4,N
1635550675.9,286047001.2,N
1635550695.7,286046998.5,N
1635550715.6,286046998.6,N
1635550735.4,286047000.6,N
1635550755.2,286047000.2,N
1635550775.1,286047000.0,N
1635550776.0,286047000.0,N
1635550795.8,286046998.3,N
1635550815.6,286047001.0,N
1635550835.5,286046998.5,N
1635550855.3,286046999.3,N
1635550875.2,286046998.8,N
1635550895.9,286046997.0,N
1635550915.7,286046997.1,N
1635550935.6,286046998.8,N
1635550955.4,286046998.7,N
1635550975.2,286047001.2,N
1635550995.1,286047000.9,N
1635550996.0,286047000.9,N
1635551015.8,286046998.2,N
1635551035.7,286046999.3,N
1635551055.5,286046998.5,N
1635551075.3,286046998.1,N
1635551095.2,286046998.9,N
1635551115.0,286046998.3,N
1635551115.9,286046998.3,N
1635551135.8,286046999.2,N
1635551155.6,286046998.5,N
1635551175.4,286046999.9,N
1635551195.3,286047000.2,N
1635551215.1,286047000.8,N
1635551235.8,286047000.0,N
1635551255.7,286046999.9,N
1635551275.5,286046999.7,N
1635551295.4,286047000.3,N
1635551315.2,286047002.7,N
1635551335.0,286047002.7,N
1635551335.9,286047002.7,N
1635551355.8,286047002.2,N
1635551375.6,286046999.8,N
1635551395.5,286047002.2,N
1635551415.3,286047002.8,N
1635551435.1,286046999.8,N
1635551455.9,286047000.8,N
1635551475.7,286047000.4,N
1635551495.6,286047000.3,N
1635551515.4,286047000.7,N
1635551535.2,286046998.2,N
1635551555.1,286046999.3,N
1635551556.0,286046999.3,N
1635551575.8,286046998.3,N
1635551595.6,286047001.2,N
1635551615.5,286046998.8,N
1635551635.3,286046998.8,N
1635551655.2,286047000.7,N
1635551675.9,286047000.2,N
1635551695.7,286047000.2,N
1635551715.6,286046999.9,N
1635551735.4,286047000.3,N
1635551755.3,286047002.3,N
1635551775.1,286047000.0,N
1635551776.0,286047000.0,N
1635551795.8,286046998.1,N
1635551815.7,286047000.9,N
1635551835.5,286047000.6,N
1635551855.4,286047000.4,N
1635551875.2,286047001.0,N
1635551895.0,286047000.3,N
1635551895.9,286047000.3,N
1635551915.8,286047000.4,N
1635551935.6,286046998.3,N
1635551955.4,286047000.7,N
1635551975.3,286046998.1,N
1635551995.1,286046998.1,N
